Location: Austin
(30.3000°N, 97.7500°W)
Time: 11:59:59
(UTC-05:00)

Cosmos 1461 - Pass Details

Date: 26 May 2023
Orbit: 490 x 640 km, 65.0° (Epoch: 30 May)

Event Time Altitude Azimuth Distance (km) Brightness Sun altitude
Rises 21:42:41 0° 343° (NNW) 2,917 7.4 -15.3°
Reaches altitude 10° 21:45:12 10° 353° (N) 1,990 6.3 -15.7°
Maximum altitude 21:49:17 33° 58° (ENE) 1,021 4.0 -16.4°
Enters shadow 21:50:43 27° 95° (E) 1,173 4.0 -16.6°
